NAYIF-1 (EO-88) (42017 NORAD) Tracking and Keplerian Element Data

This shows tracking and keplerian element data for the satellite.

Feedback or suggestion? Click here.




ElementValue
Catalog42017
NameNAYIF-1 (EO-88)
Epoch Orbit11653
Epoch Day81.86030115
Epoch Year2019
RAAN149.8336
Inclination97.4122
Eccentricity0.0007883
Argument of Perigee114.0456
Mean Anonmoly246.1608
Mean Motion15.25248019
Decay Rate1.653E-05
L11 42017U 17008BX 19081.86030115 .00001653 00000-0 68588-4 0 9997
L22 42017 97.4122 149.8336 0007883 114.0456 246.1608 15.25248019116532

Live tracking and technical data element details for NAYIF-1 (EO-88) (NORAD 42017). NAYIF-1 (EO-88) can be tracked NOW for your location showing map with azimuth and elevation plus other details from your city location.

Track the satellite on the map from your city or location and see movement details for azimuth, elevation, latitude, longitude, range, height, and movement on the map or in text.







IsCatalogInMostPopularTable: catalog: 42017, numindb: 225
Update: records affected: 1



GetName: 42017 NAYIF-1 (EO-88)

Hit Count: updated at: Sun, 24 Mar 2019 09:03:47 GMT